Powrót do katalogu

STARLINK-37351

AktywnyŁącznośćSSO
NORAD 68742·PAYLOAD·🇺🇸 United States

Wystrzelony Apr 15, 2026 z Vandenberg Space Force Base

Loading…

Następne Przeloty (najbliższe 24 godziny)

TLE

ŚwieżeSource: CelesTrak SupGP

Epoka: Sep 14, 2026, 21:06 UTC

1 68742C 26082Q   26257.87965278  .00014979  00000+0  46556-3 0  2574
2 68742  97.2846 120.1078 0001911  99.2800 275.0301 15.33390608    11

Śledź STARLINK-37351 w czasie rzeczywistym z AllMySat

Download on the App Store